Location: Schommer Observatory
(40.5200°N, 74.4500°W)
Time: 12:01:56
(UTC-04:00)

ISS - Pass Details

Date: 18 May 2018
Orbit: 402 x 407 km, 51.6° (Epoch: 23 May)

Event Time Altitude Azimuth Distance (km) Brightness Sun altitude
Rises 03:32:54 0° 312° (NW) 2,319 0.0 -19.5°
Reaches altitude 10° 03:35:35 10° 335° (NNW) 1,458 -0.7 -19.2°
Maximum altitude 03:37:40 16° 15° (NNE) 1,164 -0.7 -18.9°
Drops below altitude 10° 03:39:45 10° 55° (NE) 1,456 0.1 -18.7°
Sets 03:42:26 0° 79° (ENE) 2,314 0.9 -18.3°
